TimeCDT,TemperatureF,Dew PointF,Humidity,Sea Level PressureIn,VisibilityMPH,Wind Direction,Wind SpeedMPH,Gust SpeedMPH,PrecipitationIn,Events,Conditions,WindDirDegrees,DateUTC
12:52 AM,68.0,48.9,50,29.71,10.0,SW,16.1,24.2,N/A,,Clear,220,2012-10-16 05:52:00
1:52 AM,66.9,48.0,51,29.69,10.0,SSW,13.8,-,N/A,,Clear,210,2012-10-16 06:52:00
2:52 AM,60.1,46.9,62,29.68,10.0,SW,6.9,-,N/A,,Clear,220,2012-10-16 07:52:00
3:52 AM,61.0,46.9,60,29.66,10.0,SSW,8.1,-,N/A,,Clear,210,2012-10-16 08:52:00
4:52 AM,64.0,46.9,54,29.65,10.0,SW,12.7,-,N/A,,Clear,220,2012-10-16 09:52:00
5:52 AM,63.0,46.0,54,29.65,10.0,SW,13.8,-,N/A,,Clear,220,2012-10-16 10:52:00
6:52 AM,61.0,46.0,58,29.68,10.0,SW,10.4,-,N/A,,Clear,230,2012-10-16 11:52:00
7:52 AM,60.1,46.0,60,29.66,10.0,SSW,10.4,-,N/A,,Clear,210,2012-10-16 12:52:00
8:52 AM,64.0,46.9,54,29.65,10.0,SW,13.8,-,N/A,,Clear,220,2012-10-16 13:52:00
9:52 AM,66.0,46.9,50,29.66,10.0,SW,13.8,23.0,N/A,,Clear,230,2012-10-16 14:52:00
10:52 AM,71.1,46.9,42,29.65,10.0,WSW,13.8,20.7,N/A,,Clear,240,2012-10-16 15:52:00
11:52 AM,73.0,46.0,38,29.65,10.0,WSW,12.7,19.6,N/A,,Clear,240,2012-10-16 16:52:00
12:52 PM,75.9,44.1,32,29.62,10.0,West,9.2,-,N/A,,Clear,270,2012-10-16 17:52:00
1:52 PM,78.1,46.0,32,29.58,10.0,SW,9.2,-,N/A,,Clear,220,2012-10-16 18:52:00
2:52 PM,79.0,45.0,30,29.55,10.0,SSW,6.9,-,N/A,,Clear,200,2012-10-16 19:52:00
3:52 PM,80.1,44.1,28,29.52,10.0,SSW,6.9,-,N/A,,Clear,210,2012-10-16 20:52:00
4:52 PM,81.0,45.0,28,29.51,10.0,WSW,10.4,-,N/A,,Clear,240,2012-10-16 21:52:00
5:52 PM,78.1,46.9,33,29.49,10.0,WSW,5.8,-,N/A,,Clear,240,2012-10-16 22:52:00
6:52 PM,66.0,48.0,52,29.49,10.0,Calm,Calm,-,N/A,,Clear,0,2012-10-16 23:52:00
7:52 PM,64.0,48.0,56,29.50,10.0,Calm,Calm,-,N/A,,Clear,0,2012-10-17 00:52:00
8:52 PM,57.9,50.0,75,29.49,10.0,Calm,Calm,-,N/A,,Clear,0,2012-10-17 01:52:00
9:52 PM,59.0,50.0,72,29.48,10.0,Calm,Calm,-,N/A,,Clear,0,2012-10-17 02:52:00
10:52 PM,59.0,51.1,75,29.47,10.0,Calm,Calm,-,N/A,,Clear,0,2012-10-17 03:52:00
11:52 PM,61.0,53.1,75,29.46,10.0,Calm,Calm,-,N/A,,Clear,0,2012-10-17 04:52:00